Location: Hopville
(44.8032°N, 123.1329°W)
Time: 16:39:14
(UTC+00:00)

YAOGAN 6 - Pass Details

Date: 24 January 2021
Orbit: 465 x 502 km, 97.0° (Epoch: 28 February)

Event Time Altitude Azimuth Distance (km) Brightness Sun altitude
Rises 13:45:44 0° 16° (NNE) 2,610 6.4 -20.1°
Reaches altitude 10° 13:47:52 10° 22° (NNE) 1,722 5.5 -19.7°
Maximum altitude 13:51:30 52° 99° (E) 633 3.5 -19.1°
Drops below altitude 10° 13:55:06 10° 177° (S) 1,705 5.5 -18.5°
Sets 13:57:13 0° 182° (S) 2,581 6.3 -18.1°
